Date String (YYYY-MM-DD hh:mm:ss) UTC,Instrument flags,absolute air pressure of the measurement (hPa),sample flow rate (lpm),inlet stack bypass flow (lpm),air temperature of the measurement (°C),ambient temperature measured by the external sensor (°C),aerosol sample conditioner tube jacket temperature (°C),OPC LED temperature (°C),internal box temperature (°C),relative humidity of the measurement (%),span deviation,mass concentration of particles derived from Lorenz-Mie calculation of OPC scattering (μg/m³),mass concentration of particles derived from Lorenz-Mie calculation of OPC scattering (μg/m³),mass concentration of particles derived from Lorenz-Mie calculation of OPC scattering (μg/m³)
DateTimeUTC,F1_M11,P_M11,Q1_M11,Q2_M11,T1_M11,T2_M11,T3_M11,T4_M11,T5_M11,U1_M11,ZSPAN_M11,X2_M11,X0_M11,X1_M11
2023-08-25 22:00:00,SystemResetWarning,0840.0,4.99,000.00,030.7,027.1,000.0,038.5,030.7,33.8,0000.0,0004.21,0007.49,0003.89
2023-08-25 22:01:00,SystemResetWarning,0840.0,5.00,000.00,030.7,027.3,000.0,038.6,030.8,33.8,0000.0,0004.21,0007.52,0003.89
2023-08-25 22:02:00,SystemResetWarning,0840.0,5.00,000.00,030.7,027.4,000.0,038.6,030.8,33.8,0000.1,0004.16,0007.31,0003.88
2023-08-25 22:03:00,SystemResetWarning,0840.0,5.00,000.00,030.6,027.5,000.0,038.7,030.8,33.9,0000.0,0004.15,0007.19,0003.88
2023-08-25 22:04:00,SystemResetWarning,0840.0,5.00,000.00,030.6,027.6,000.0,038.7,030.9,33.9,0000.0,0004.14,0006.63,0003.86
2023-08-25 22:05:00,SystemResetWarning,0840.0,5.00,000.00,030.6,027.6,000.0,038.7,030.9,33.9,0000.0,0004.13,0006.40,0003.84
2023-08-25 22:06:00,SystemResetWarning,0840.0,5.00,000.00,030.6,027.7,000.0,038.8,030.9,33.9,0000.0,0004.11,0006.32,0003.83
2023-08-25 22:07:00,SystemResetWarning,0840.0,5.00,000.00,030.6,027.8,000.0,038.8,030.9,33.8,0000.0,0004.06,0006.17,0003.80
2023-08-25 22:08:00,SystemResetWarning,0840.0,5.00,000.00,030.6,027.8,000.0,038.8,030.9,33.8,0000.0,0004.03,0006.31,0003.78
2023-08-25 22:09:00,SystemResetWarning,0840.0,5.00,000.00,030.5,027.8,000.0,038.8,031.0,33.9,0000.0,0004.05,0006.42,0003.77
2023-08-25 22:10:00,SystemResetWarning,0840.0,5.00,000.00,030.5,027.9,000.0,038.8,031.0,34.0,0000.0,0004.02,0006.40,0003.75
2023-08-25 22:11:00,SystemResetWarning,0840.0,4.99,000.00,030.5,026.9,000.0,038.7,030.9,33.9,0000.0,0004.00,0006.39,0003.72
2023-08-25 22:12:00,SystemResetWarning,0839.9,5.01,000.00,030.5,025.2,000.0,038.5,030.7,33.8,0000.0,0003.98,0006.21,0003.71
2023-08-25 22:13:00,SystemResetWarning,0839.9,5.01,000.00,030.4,024.6,000.0,038.4,030.4,34.1,0000.0,0003.98,0006.15,0003.70
2023-08-25 22:14:00,SystemResetWarning,0839.9,5.01,000.00,030.1,024.8,000.0,038.5,030.2,34.5,0000.0,0003.94,0006.02,0003.69
2023-08-25 22:15:00,SystemResetWarning,0839.9,5.00,000.00,030.0,025.2,000.0,038.5,030.2,34.8,0000.0,0003.92,0005.94,0003.68
2023-08-25 22:16:00,SystemResetWarning,0839.9,4.98,000.00,029.9,025.6,000.0,038.5,030.3,35.1,0000.0,0003.91,0005.84,0003.67
2023-08-25 22:17:00,SystemResetWarning,0839.9,5.04,000.00,030.1,026.0,000.0,038.4,030.5,35.0,0000.0,0003.90,0005.80,0003.65
2023-08-25 22:18:00,SystemResetWarning,0839.9,4.97,000.00,030.2,026.3,000.0,038.4,030.6,34.7,0000.0,0003.89,0005.75,0003.65
2023-08-25 22:19:00,SystemResetWarning,0839.9,5.01,000.00,030.3,026.6,000.0,038.4,030.6,34.6,0000.0,0003.88,0005.48,0003.64
2023-08-25 22:20:00,SystemResetWarning,0839.9,5.00,000.00,030.4,026.8,000.0,038.4,030.7,34.4,0000.0,0003.86,0005.37,0003.63
2023-08-25 22:21:00,SystemResetWarning,0839.9,4.99,000.00,030.4,027.0,000.0,038.5,030.7,34.6,0000.0,0003.84,0005.34,0003.61
2023-08-25 22:22:00,SystemResetWarning,0839.9,5.00,000.00,030.4,027.2,000.0,038.5,030.7,34.7,0000.0,0003.84,0005.29,0003.61
2023-08-25 22:23:00,SystemResetWarning,0839.9,5.00,000.00,030.4,027.3,000.0,038.5,030.7,34.8,0001.4,0003.83,0005.22,0003.61
2023-08-25 22:24:00,SystemResetWarning,0839.9,5.00,000.00,030.4,027.4,000.0,038.5,030.8,34.8,0000.3,0003.84,0005.33,0003.61
2023-08-25 22:25:00,SystemResetWarning,0839.9,5.01,000.00,030.4,027.5,000.0,038.6,030.8,34.7,0000.0,0003.87,0005.46,0003.61
2023-08-25 22:26:00,SystemResetWarning,0839.9,5.00,000.00,030.4,027.6,000.0,038.6,030.8,34.6,0000.2,0003.88,0005.60,0003.62
2023-08-25 22:27:00,SystemResetWarning,0839.9,5.00,000.00,030.4,027.6,000.0,038.6,030.8,34.7,0001.3,0003.85,0006.63,0003.61
2023-08-25 22:28:00,SystemResetWarning,0839.9,5.00,000.00,030.4,027.7,000.0,038.6,030.9,34.8,0001.6,0003.83,0006.53,0003.60
2023-08-25 22:29:00,SystemResetWarning,0839.9,4.99,000.00,030.4,027.7,000.0,038.6,030.9,34.8,0001.4,0003.82,0006.53,0003.59
2023-08-25 22:30:00,SystemResetWarning,0839.9,5.00,000.00,030.3,027.8,000.0,038.7,030.9,34.8,0000.7,0003.79,0006.51,0003.57
2023-08-25 22:31:00,SystemResetWarning,0839.9,5.00,000.00,030.3,027.3,000.0,038.6,030.9,34.5,0000.9,0003.77,0006.48,0003.55
2023-08-25 22:32:00,SystemResetWarning,0839.9,5.00,000.00,030.3,025.4,000.0,038.4,030.6,34.5,0000.1,0003.74,0006.48,0003.52
2023-08-25 22:33:00,SystemResetWarning,0839.9,5.02,000.00,030.2,024.6,000.0,038.3,030.3,34.5,0000.0,0003.72,0006.52,0003.48
2023-08-25 22:34:00,SystemResetWarning,0839.9,4.98,000.00,030.0,024.7,000.0,038.3,030.1,35.0,0000.0,0003.68,0006.53,0003.44
2023-08-25 22:35:00,SystemResetWarning,0839.8,5.01,000.00,029.9,025.1,000.0,038.3,030.1,35.2,0000.0,0003.65,0006.48,0003.40
2023-08-25 22:36:00,SystemResetWarning,0839.9,5.02,000.00,030.1,025.5,000.0,038.3,030.3,34.9,0000.0,0003.59,0006.27,0003.37
2023-08-25 22:37:00,SystemResetWarning,0840.0,4.97,000.00,030.2,025.8,000.0,038.3,030.5,34.6,0000.0,0003.57,0006.22,0003.35
2023-08-25 22:38:00,SystemResetWarning,0840.0,5.02,000.00,030.3,026.2,000.0,038.3,030.5,34.4,0000.0,0003.57,0005.31,0003.34
2023-08-25 22:39:00,SystemResetWarning,0840.0,5.00,000.00,030.3,026.5,000.0,038.3,030.6,34.3,0000.0,0003.57,0005.17,0003.33
2023-08-25 22:40:00,SystemResetWarning,0839.9,5.00,000.00,030.4,026.7,000.0,038.3,030.6,34.2,0000.0,0003.56,0005.11,0003.33
2023-08-25 22:41:00,SystemResetWarning,0840.0,5.00,000.00,030.4,026.9,000.0,038.4,030.6,34.2,0000.0,0003.56,0005.11,0003.34
2023-08-25 22:42:00,SystemResetWarning,0840.0,4.99,000.00,030.4,027.1,000.0,038.4,030.7,34.3,0000.0,0003.56,0005.08,0003.35
2023-08-25 22:43:00,SystemResetWarning,0840.0,4.98,000.00,030.4,027.2,000.0,038.4,030.7,34.4,0000.0,0003.58,0005.06,0003.37
2023-08-25 22:44:00,SystemResetWarning,0840.0,5.01,000.00,030.4,027.3,000.0,038.5,030.7,34.5,0000.0,0003.60,0005.03,0003.40
2023-08-25 22:45:00,SystemResetWarning,0840.0,5.01,000.00,030.3,027.4,000.0,038.5,030.7,34.5,0000.0,0003.64,0005.03,0003.44
2023-08-25 22:46:00,SystemResetWarning,0840.0,4.99,000.00,030.3,027.5,000.0,038.5,030.7,34.6,0000.0,0003.67,0005.20,0003.49
2023-08-25 22:47:00,SystemResetWarning,0840.0,4.99,000.00,030.3,027.6,000.0,038.5,030.8,34.6,0000.0,0003.71,0005.28,0003.53
2023-08-25 22:48:00,SystemResetWarning,0839.9,5.00,000.00,030.3,027.6,000.0,038.6,030.8,34.5,0000.0,0003.76,0005.39,0003.58
2023-08-25 22:49:00,SystemResetWarning,0839.9,5.01,000.00,030.3,027.7,000.0,038.6,030.8,34.4,0000.0,0003.80,0005.37,0003.62
2023-08-25 22:50:00,SystemResetWarning,0839.9,5.01,000.00,030.3,027.7,000.0,038.6,030.8,34.3,0000.0,0003.84,0005.46,0003.66
2023-08-25 22:51:00,SystemResetWarning,0839.9,5.00,000.00,030.3,027.8,000.0,038.6,030.9,34.2,0000.0,0003.88,0005.55,0003.70
2023-08-25 22:52:00,SystemResetWarning,0840.0,4.99,000.00,030.2,027.6,000.0,038.6,030.9,34.2,0000.0,0003.92,0005.70,0003.72
2023-08-25 22:53:00,SystemResetWarning,0839.9,4.99,000.00,030.2,025.9,000.0,038.4,030.7,34.1,0000.0,0003.96,0005.82,0003.75
2023-08-25 22:54:00,SystemResetWarning,0839.9,5.01,000.00,030.2,024.7,000.0,038.2,030.5,34.2,0000.0,0003.99,0005.87,0003.77
2023-08-25 22:55:00,SystemResetWarning,0839.9,5.00,000.00,030.0,024.6,000.0,038.2,030.2,34.4,0000.0,0004.03,0005.99,0003.80
2023-08-25 22:56:00,SystemResetWarning,0839.9,5.00,000.00,029.8,024.9,000.0,038.2,030.1,34.7,0000.0,0004.06,0006.15,0003.81
2023-08-25 22:57:00,SystemResetWarning,0840.0,5.00,000.00,029.7,025.3,000.0,038.2,030.2,34.8,0000.0,0004.10,0006.24,0003.81
2023-08-25 22:58:00,SystemResetWarning,0839.9,4.99,000.00,029.7,025.7,000.0,038.2,030.2,34.9,0000.0,0004.08,0006.17,0003.79
2023-08-25 22:59:00,SystemResetWarning,0840.0,5.02,000.00,029.7,026.0,000.0,038.2,030.3,34.9,0000.0,0004.06,0006.13,0003.77
